This demonstration page uses our WeatherBlox Daily Observations layout. Learn more.

Left ArrowRight Arrow

Hourly Observations for January 4, 2016

Temp ( °F °C ) Dew Point ( °F °C ) Humidity (%) Winds ( mph kmh ) Pressure ( in mb ) Visibility ( mi km ) Precip ( " mm )
12:53 am 00:53 Clear with Mist and Fog 13 -10.6 10 -12.2 88 88 Calm 30.48 1032 6 10 0.00 0.00
1:53 am 01:53 Clear with Mist and Fog 12 -11.1 9 -12.8 87 87 Calm 30.46 1032 6 10 0.00 0.00
1:59 am 01:59 Clear with Mist and Fog 12 -11.1 8 -13.3 84 84 Calm 30.56 1035 2 2 0.00 0.00
2:18 am 02:18 Clear with Mist and Fog 12 -11 9 -13 85 85 NE 3 6 30.56 1035 3 5 0.00 0.00
2:30 am 02:30 Partly Cloudy 10 -12 7 -14 85 85 Calm 30.59 1036 7 11 0.00 0.00
2:42 am 02:42 Mostly Clear with Mist and Fog 10 -12 7 -14 85 85 NE 3 6 30.59 1036 2 2 0.00 0.00
2:50 am 02:50 Mostly Cloudy with Mist and Fog 10 -12 9 -13 92 92 NE 3 6 30.59 1036 1 2 0.00 0.00
2:53 am 02:53 Mostly Clear with Mist and Fog 11 -11.7 8 -13.3 88 88 NE 3 6 30.46 1032 3 4 0.00 0.00
3:00 am 03:00 Clear with Mist and Fog 10 -12 7 -14 85 85 NE 3 6 30.59 1036 6 10 0.00 0.00
3:53 am 03:53 Clear 9 -12.8 6 -14.4 88 88 Calm 30.47 1032 7 11 0.00 0.00
4:38 am 04:38 Partly Cloudy 10 -12 7 -14 85 85 W 3 6 30.59 1036 8 13 0.00 0.00
4:53 am 04:53 Partly Cloudy 12 -11.1 9 -12.8 87 87 Calm 30.46 1032 7 11 0.00 0.00
5:04 am 05:04 Mostly Cloudy with Haze 10 -12 5 -15 79 79 Calm 30.59 1036 6 10 0.00 0.00
5:23 am 05:23 Cloudy with Mist and Fog 9 -12.8 5 -15 84 84 NE 6 9 30.59 1036 1 2 0.00 0.00
5:30 am 05:30 Mostly Cloudy with Freezing Fog 10 -12 7 -14 85 85 ENE 5 7 30.59 1036 0 0 0.00 0.00
5:53 am 05:53 Mostly Cloudy with Freezing Fog 14 -10 10 -12.2 84 84 Calm 30.48 1032 0 0 0.00 0.00
6:53 am 06:53 Cloudy with Haze 15 -9.4 8 -13.3 74 74 Calm 30.49 1032 1 2 0.00 0.00
6:58 am 06:58 Cloudy with Haze 16 -9 9 -13 73 73 ENE 3 6 30.56 1035 3 5 0.00 0.00
7:18 am 07:18 Cloudy with Haze 16 -9 9 -13 73 73 NE 3 6 30.56 1035 2 3 0.00 0.00
7:31 am 07:31 Mostly Cloudy with Haze 16 -8.9 10 -12.2 77 77 Calm 30.56 1035 0 0 0.00 0.00
7:53 am 07:53 Mostly Cloudy with Haze 17 -8.3 11 -11.7 77 77 WSW 3 6 30.49 1033 0 0 0.00 0.00
8:18 am 08:18 Mostly Cloudy with Haze 16 -9 9 -13 73 73 Calm 30.56 1035 1 2 0.00 0.00
8:26 am 08:26 Hazy 16 -8.9 9 -12.8 74 74 Calm 30.56 1035 3 4 0.00 0.00
8:35 am 08:35 Hazy 17 -8.3 9 -12.8 70 70 Calm 30.53 1034 4 6 0.00 0.00
8:53 am 08:53 Hazy 19 -7.2 12 -11.1 74 74 S 5 7 30.49 1033 6 10 0.00 0.00
9:53 am 09:53 Hazy 17 -8.3 9 -12.8 70 70 SE 9 15 30.51 1033 5 8 0.00 0.00
10:11 am 10:11 Mostly Cloudy with Haze 16 -8.9 9 -12.8 74 74 SE 9 15 30.59 1036 3 5 0.00 0.00
10:17 am 10:17 Mostly Cloudy with Light Snow 17 -8.3 10 -12.2 74 74 SSE 9 15 30.56 1035 2 3 0.00 0.03
10:26 am 10:26 Mostly Cloudy with Light Snow 18 -8 9 -13 68 68 SE 8 13 30.56 1035 3 4 0.00 0.00
10:40 am 10:40 Hazy 18 -8 10 -12 73 73 SE 9 15 30.56 1035 4 6 0.00 0.00
10:53 am 10:53 Hazy 19 -7.2 11 -11.7 71 71 SE 8 13 30.51 1033 3 5 0.00 0.03
11:35 am 11:35 Hazy 21 -6.1 12 -11.1 68 68 SE 8 13 30.53 1034 3 4 0.00 0.00
11:46 am 11:46 Hazy 21 -6 14 -10 74 74 SSE 6 9 30.53 1034 4 6 0.00 0.00
11:53 am 11:53 Hazy 22 -5.6 14 -10 71 71 S 7 11 30.49 1033 5 8 0.00 0.00
12:53 pm 12:53 Sunny 23 -5 17 -8.3 78 78 S 8 13 30.45 1031 10 16 0.00 0.00
1:53 pm 13:53 Sunny 25 -3.9 19 -7.2 78 78 S 9 15 30.41 1030 10 16 0.00 0.00
2:53 pm 14:53 Sunny 28 -2.2 19 -7.2 69 69 SSE 9 15 30.38 1029 9 14 0.00 0.00
3:53 pm 15:53 Sunny 28 -2.2 19 -7.2 69 69 SSE 13 20 30.37 1029 10 16 0.00 0.00
4:53 pm 16:53 Sunny 26 -3.3 19 -7.2 75 75 SE 13 20 30.36 1028 9 14 0.00 0.00
5:53 pm 17:53 Clear 23 -5 18 -7.8 81 81 SSE 14 22 30.35 1028 7 11 0.00 0.00
6:53 pm 18:53 Clear 22 -5.6 18 -7.8 85 85 SSE 14 22 30.35 1028 10 16 0.00 0.00
7:25 pm 19:25 Mostly Clear 21 -6.1 17 -8.3 85 85 SSE 13 20 30.36 1028 10 16 0.00 0.00
7:40 pm 19:40 Mostly Cloudy 21 -6 18 -8 86 86 SSE 14 22 30.36 1028 10 16 0.00 0.00
7:53 pm 19:53 Cloudy 21 -6.1 18 -7.8 88 88 S 14 22 30.35 1028 9 14 0.00 0.00
8:16 pm 20:16 Cloudy 21 -6.1 18 -7.8 88 88 SSE 13 20 30.39 1029 7 11 0.00 0.00
8:53 pm 20:53 Cloudy with Mist and Fog 20 -6.7 18 -7.8 92 92 SSE 15 24 30.34 1027 5 8 0.00 0.00
9:22 pm 21:22 Cloudy with Mist and Fog 19 -7 18 -8 93 93 SSE 12 19 30.39 1029 2 3 0.00 0.00
9:31 pm 21:31 Cloudy with Mist and Fog 19 -7 18 -8 93 93 SSE 12 19 30.39 1029 6 10 0.00 0.00
9:53 pm 21:53 Cloudy with Mist and Fog 20 -6.7 18 -7.8 92 92 SSE 13 20 30.33 1027 6 10 0.00 0.00
10:53 pm 22:53 Cloudy 20 -6.7 17 -8.3 89 89 S 10 17 30.32 1027 7 11 0.00 0.00
11:53 pm 23:53 Cloudy 20 -6.7 18 -7.8 92 92 S 12 19 30.31 1026 8 13 0.00 0.00

Powered by AerisWeather